Rome Urbe AFB, Italy

9:27 AM CEST on October 22, 2017 (GMT +0200)
Urbe

Weather History for LIRU - December, 2011

Change the Weather History Date:

Monday, December 12, 2011

  Actual Average Record
Temperature  
Mean Temperature 56 °F -  
Max Temperature 62 °F 55 °F 62 °F (2011)
Min Temperature 51 °F 36 °F 17 °F (2007)
Degree Days  
Heating Degree Days 8    
Growing Degree Days 6 (Base 50)    
Moisture  
Dew Point 54 °F    
Average Humidity 89    
Maximum Humidity 94    
Minimum Humidity 72    
Precipitation  
Precipitation 0.00 in 0.12 in - ()
Sea Level Pressure  
Sea Level Pressure 29.98 in    
Wind  
Wind Speed 7 mph ()    
Max Wind Speed 13 mph    
Max Gust Speed -    
Visibility 5.1 miles    
Events Rain , Thunderstorm    
Averages and records for this station are not official NWS values.
T = Trace of Precipitation, MM = Missing Value Source: Averaged Metar Reports

Daily Weather History Graph

Daily Weather History Graph

Search for Another Location

Airport or City:

Trip Planner

Search our weather history database for the weather conditions in past years. The results will help you decide how hot, cold, wet, or windy it might be!

Date:

Astronomy

Dec. 12, 2011 Rise Set
Actual Time 7:28 AM CET 4:38 PM CET
Civil Twilight 6:56 AM CET 5:10 PM CET
Nautical Twilight 6:21 AM CET 5:45 PM CET
Astronomical Twilight 5:47 AM CET 6:19 PM CET
Moon 6:32 PM CET (12/12) 8:47 AM CET (12/12)
Length of Visible Light 10h 13m
Length of Day
9h 10m
Waning Gibbous, 97% of the Moon is Illuminated
Dec 12
Waning Gibbous
Dec 18
Last Quarter
Dec 24
New
Jan 1
First Quarter
Jan 9
Full

Hourly Weather History & Observations

Time (CET) Temp. Dew Point Humidity Pressure Visibility Wind Dir Wind Speed Gust Speed Precip Events Conditions
7:29 AM 55.4 °F 53.6 °F 94% 30.04 in 5.0 mi SSE 10.4 mph - N/A Rain , Thunderstorm Light Thunderstorms and Rain
7:50 AM 53.6 °F 51.8 °F 94% 30.04 in 5.0 mi SE 12.7 mph - N/A Rain , Thunderstorm Light Thunderstorms and Rain
8:30 AM 51.8 °F 50.0 °F 94% 30.04 in 6.2 mi ESE 10.4 mph - N/A   Partly Cloudy
8:50 AM 51.8 °F 50.0 °F 94% 30.04 in 6.2 mi SE 8.1 mph - N/A   Partly Cloudy
9:50 AM 51.8 °F 50.0 °F 94% 30.04 in 6.2 mi SE 5.8 mph - N/A   Partly Cloudy
10:50 AM 55.4 °F 51.8 °F 88% 30.04 in 6.2 mi Variable 3.5 mph - N/A   Scattered Clouds
11:50 AM 59.0 °F 53.6 °F 82% 30.01 in 6.2 mi ESE 6.9 mph - N/A   Partly Cloudy
12:50 PM 60.8 °F 51.8 °F 72% 29.98 in 6.2 mi South 11.5 mph - N/A   Partly Cloudy
1:50 PM 62.6 °F 53.6 °F 72% 29.95 in 6.2 mi South 12.7 mph - N/A   Scattered Clouds
2:00 PM 60.8 °F 55.4 °F 82% 29.95 in 5.0 mi SSE 10.4 mph - N/A Rain Rain
2:13 PM 60.8 °F 55.4 °F 82% 29.95 in 3.7 mi South 4.6 mph - N/A Rain , Thunderstorm Light Thunderstorms and Rain
2:25 PM 59.0 °F 55.4 °F 88% 29.95 in 3.1 mi SSE 8.1 mph - N/A Rain , Thunderstorm Thunderstorms and Rain
2:50 PM 57.2 °F 55.4 °F 94% 29.95 in 0.9 mi WSW 5.8 mph - N/A Rain , Thunderstorm Heavy Thunderstorms and Rain
3:01 PM 57.2 °F 55.4 °F 94% 29.95 in 6.2 mi Variable 2.3 mph - N/A Thunderstorm Thunderstorm
3:19 PM 57.2 °F 55.4 °F 94% 29.95 in 5.0 mi Variable 3.5 mph - N/A Rain Light Rain
3:50 PM 57.2 °F 55.4 °F 94% 29.95 in 5.0 mi Variable 2.3 mph - N/A   Scattered Clouds
4:50 PM 57.2 °F 55.4 °F 94% 29.95 in 5.0 mi Variable 3.5 mph - N/A   Scattered Clouds
5:50 PM 55.4 °F 53.6 °F 94% 29.95 in 5.0 mi Variable 2.3 mph - N/A   Scattered Clouds
6:50 PM 55.4 °F 53.6 °F 94% 29.95 in 5.0 mi SE 5.8 mph - N/A   Scattered Clouds
7:50 PM 57.2 °F 53.6 °F 88% 29.95 in 5.0 mi South 5.8 mph - N/A   Scattered Clouds
8:50 PM 55.4 °F 53.6 °F 94% 29.95 in 5.0 mi South 5.8 mph - N/A   Scattered Clouds
9:50 PM 57.2 °F 53.6 °F 88% 29.95 in 5.0 mi Variable 3.5 mph - N/A   Scattered Clouds